Time,TemperatureF,DewpointF,PressureIn,WindDirection,WindDirectionDegrees,WindSpeedMPH,WindSpeedGustMPH,Humidity,HourlyPrecipIn,Conditions,Clouds,dailyrainin,SoftwareType,DateUTC
2013-02-07 00:02:00,37.0,35.0,-100.00,SW,235,8.0,14.0,90,-99.99,,,-99.99,,2013-02-07 06:02:00,
2013-02-07 00:11:00,38.0,35.0,-100.00,SW,220,11.0,19.0,90,-99.99,,,-99.99,,2013-02-07 06:11:00,
2013-02-07 00:22:00,38.0,35.0,-100.00,WSW,240,11.0,19.0,90,-99.99,,,-99.99,,2013-02-07 06:22:00,
2013-02-07 00:32:00,38.0,35.0,-100.00,WSW,240,11.0,19.0,90,-99.99,,,-99.99,,2013-02-07 06:32:00,
2013-02-07 00:43:00,38.0,35.0,-100.00,West,260,4.0,14.0,90,-99.99,,,-99.99,,2013-02-07 06:43:00,
2013-02-07 00:52:00,38.0,35.0,-100.00,WSW,245,8.0,14.0,90,-99.99,,,-99.99,,2013-02-07 06:52:00,
2013-02-07 01:01:00,38.0,35.0,-100.00,WSW,245,8.0,14.0,90,-99.99,,,-99.99,,2013-02-07 07:01:00,
2013-02-07 01:11:00,38.0,35.0,-100.00,WSW,250,8.0,14.0,91,-99.99,,,-99.99,,2013-02-07 07:11:00,
2013-02-07 01:22:00,37.0,35.0,-100.00,WSW,245,8.0,17.0,91,-99.99,,,-99.99,,2013-02-07 07:22:00,
2013-02-07 01:32:00,37.0,35.0,-100.00,SW,235,8.0,14.0,91,-99.99,,,-99.99,,2013-02-07 07:32:00,
2013-02-07 01:42:00,37.0,35.0,-100.00,SW,235,8.0,14.0,91,-99.99,,,-99.99,,2013-02-07 07:42:00,
2013-02-07 01:52:00,37.0,35.0,-100.00,West,260,9.0,12.0,91,-99.99,,,-99.99,,2013-02-07 07:52:00,
2013-02-07 02:01:00,37.0,35.0,-100.00,West,260,9.0,12.0,91,-99.99,,,-99.99,,2013-02-07 08:01:00,
2013-02-07 02:11:00,37.0,35.0,-100.00,WSW,240,8.0,11.0,92,-99.99,,,-99.99,,2013-02-07 08:11:00,
2013-02-07 02:21:00,37.0,35.0,-100.00,SW,230,8.0,14.0,92,-99.99,,,-99.99,,2013-02-07 08:21:00,
2013-02-07 02:32:00,37.0,35.0,-100.00,SW,230,8.0,14.0,92,-99.99,,,-99.99,,2013-02-07 08:32:00,
2013-02-07 02:42:00,37.0,35.0,-100.00,West,275,7.0,13.0,93,-99.99,,,-99.99,,2013-02-07 08:42:00,
2013-02-07 02:52:00,37.0,36.0,-100.00,SW,235,6.0,14.0,95,-99.99,,,-99.99,,2013-02-07 08:52:00,
2013-02-07 03:01:00,37.0,36.0,-100.00,West,280,9.0,15.0,96,-99.99,,,-99.99,,2013-02-07 09:01:00,
2013-02-07 03:02:00,37.0,36.0,-100.00,SW,235,6.0,14.0,95,-99.99,,,-99.99,,2013-02-07 09:02:00,
2013-02-07 03:11:00,37.0,35.0,-100.00,SW,235,6.0,17.0,95,-99.99,,,-99.99,,2013-02-07 09:11:00,
2013-02-07 03:21:00,36.0,35.0,-100.00,West,265,11.0,15.0,96,-99.99,,,-99.99,,2013-02-07 09:21:00,
2013-02-07 03:32:00,36.0,35.0,-100.00,West,265,11.0,15.0,96,-99.99,,,-99.99,,2013-02-07 09:32:00,
2013-02-07 03:41:00,37.0,36.0,-100.00,West,280,9.0,15.0,96,-99.99,,,-99.99,,2013-02-07 09:41:00,
2013-02-07 03:52:00,37.0,36.0,-100.00,West,280,9.0,15.0,96,-99.99,,,-99.99,,2013-02-07 09:52:00,
2013-02-07 04:11:00,37.0,36.0,-100.00,West,265,2.0,4.0,95,-99.99,,,-99.99,,2013-02-07 10:11:00,
2013-02-07 04:22:00,37.0,36.0,-100.00,South,170,3.0,6.0,96,-99.99,,,-99.99,,2013-02-07 10:22:00,
2013-02-07 04:32:00,37.0,36.0,-100.00,South,170,3.0,6.0,96,-99.99,,,-99.99,,2013-02-07 10:32:00,
2013-02-07 04:42:00,37.0,36.0,-100.00,SSW,210,4.0,6.0,96,-99.99,,,-99.99,,2013-02-07 10:42:00,
2013-02-07 04:52:00,36.0,36.0,-100.00,WSW,245,4.0,7.0,97,-99.99,,,-99.99,,2013-02-07 10:52:00,
2013-02-07 05:01:00,36.0,36.0,-100.00,WSW,245,4.0,7.0,97,-99.99,,,-99.99,,2013-02-07 11:01:00,
2013-02-07 05:11:00,37.0,36.0,-100.00,South,170,1.0,4.0,97,-99.99,,,-99.99,,2013-02-07 11:11:00,
2013-02-07 05:23:00,36.0,36.0,-100.00,SSE,160,2.0,4.0,97,-99.99,,,-99.99,,2013-02-07 11:23:00,
2013-02-07 05:32:00,36.0,36.0,-100.00,SSE,160,2.0,4.0,97,-99.99,,,-99.99,,2013-02-07 11:32:00,
2013-02-07 05:44:00,36.0,36.0,-100.00,SSW,200,5.0,7.0,97,-99.99,,,-99.99,,2013-02-07 11:44:00,
2013-02-07 05:53:00,36.0,36.0,-100.00,WSW,250,1.0,10.0,97,-99.99,,,-99.99,,2013-02-07 11:53:00,
2013-02-07 06:02:00,36.0,36.0,-100.00,WSW,250,1.0,10.0,97,-99.99,,,-99.99,,2013-02-07 12:02:00,
2013-02-07 06:11:00,36.0,36.0,-100.00,SSW,210,4.0,9.0,97,-99.99,,,-99.99,,2013-02-07 12:11:00,
2013-02-07 06:22:00,36.0,35.0,-100.00,SW,235,2.0,9.0,97,-99.99,,,-99.99,,2013-02-07 12:22:00,
2013-02-07 06:32:00,36.0,35.0,-100.00,SW,235,2.0,9.0,97,-99.99,,,-99.99,,2013-02-07 12:32:00,
2013-02-07 06:42:00,36.0,36.0,-100.00,SW,225,5.0,9.0,98,-99.99,,,-99.99,,2013-02-07 12:42:00,
2013-02-07 06:53:00,36.0,36.0,-100.00,SSW,200,8.0,13.0,99,-99.99,,,-99.99,,2013-02-07 12:53:00,
2013-02-07 07:03:00,36.0,36.0,-100.00,SSW,200,8.0,13.0,99,-99.99,,,-99.99,,2013-02-07 13:03:00,
2013-02-07 07:12:00,36.0,36.0,-100.00,SW,215,6.0,11.0,99,-99.99,,,-99.99,,2013-02-07 13:12:00,
2013-02-07 07:22:00,36.0,36.0,-100.00,WSW,240,6.0,9.0,99,-99.99,,,-99.99,,2013-02-07 13:22:00,
2013-02-07 07:32:00,36.0,36.0,-100.00,SSW,210,4.0,11.0,99,-99.99,,,-99.99,,2013-02-07 13:32:00,
2013-02-07 07:42:00,36.0,36.0,-100.00,SSW,210,4.0,11.0,99,-99.99,,,-99.99,,2013-02-07 13:42:00,
2013-02-07 07:52:00,36.0,36.0,-100.00,West,260,4.0,12.0,99,-99.99,,,-99.99,,2013-02-07 13:52:00,
2013-02-07 08:01:00,36.0,36.0,-100.00,West,260,4.0,12.0,99,-99.99,,,-99.99,,2013-02-07 14:01:00,
2013-02-07 08:11:00,36.0,36.0,-100.00,SW,230,5.0,11.0,99,-99.99,,,-99.99,,2013-02-07 14:11:00,
2013-02-07 08:22:00,36.0,36.0,-100.00,SSW,210,6.0,17.0,99,-99.99,,,-99.99,,2013-02-07 14:22:00,
2013-02-07 08:32:00,36.0,36.0,-100.00,SSW,210,6.0,17.0,99,-99.99,,,-99.99,,2013-02-07 14:32:00,
2013-02-07 08:42:00,37.0,36.0,-100.00,SW,220,6.0,10.0,99,-99.99,,,-99.99,,2013-02-07 14:42:00,
2013-02-07 08:52:00,37.0,37.0,-100.00,SW,215,7.0,14.0,99,-99.99,,,-99.99,,2013-02-07 14:52:00,
2013-02-07 09:02:00,37.0,37.0,-100.00,SW,215,7.0,14.0,99,-99.99,,,-99.99,,2013-02-07 15:02:00,
2013-02-07 09:11:00,37.0,37.0,-100.00,SW,220,6.0,11.0,99,-99.99,,,-99.99,,2013-02-07 15:11:00,
2013-02-07 09:22:00,37.0,37.0,-100.00,SW,225,4.0,11.0,99,-99.99,,,-99.99,,2013-02-07 15:22:00,
2013-02-07 09:32:00,37.0,37.0,-100.00,SW,225,4.0,11.0,99,-99.99,,,-99.99,,2013-02-07 15:32:00,
2013-02-07 09:42:00,37.0,37.0,-100.00,SW,220,6.0,10.0,99,-99.99,,,-99.99,,2013-02-07 15:42:00,
2013-02-07 09:52:00,37.0,37.0,-100.00,SW,230,6.0,10.0,99,-99.99,,,-99.99,,2013-02-07 15:52:00,
2013-02-07 10:01:00,37.0,37.0,-100.00,SW,230,6.0,10.0,99,-99.99,,,-99.99,,2013-02-07 16:01:00,
2013-02-07 10:11:00,37.0,37.0,-100.00,SW,220,5.0,11.0,99,-99.99,,,-99.99,,2013-02-07 16:11:00,
2013-02-07 10:21:00,37.0,36.0,-100.00,SSW,210,8.0,14.0,99,-99.99,,,-99.99,,2013-02-07 16:21:00,
2013-02-07 10:32:00,36.0,36.0,-100.00,SW,225,6.0,12.0,99,-99.99,,,-99.99,,2013-02-07 16:32:00,
2013-02-07 10:42:00,36.0,36.0,-100.00,SW,225,6.0,12.0,99,-99.99,,,-99.99,,2013-02-07 16:42:00,
2013-02-07 10:52:00,37.0,36.0,-100.00,SW,220,5.0,11.0,99,-99.99,,,-99.99,,2013-02-07 16:52:00,
2013-02-07 11:01:00,37.0,36.0,-100.00,SW,220,5.0,11.0,99,-99.99,,,-99.99,,2013-02-07 17:01:00,
2013-02-07 11:11:00,37.0,37.0,-100.00,SW,230,6.0,11.0,99,-99.99,,,-99.99,,2013-02-07 17:11:00,
2013-02-07 11:21:00,37.0,37.0,-100.00,SSW,210,5.0,9.0,99,-99.99,,,-99.99,,2013-02-07 17:21:00,
2013-02-07 11:32:00,37.0,37.0,-100.00,SSW,210,5.0,9.0,99,-99.99,,,-99.99,,2013-02-07 17:32:00,
2013-02-07 11:43:00,37.0,37.0,-100.00,SW,235,6.0,11.0,99,-99.99,,,-99.99,,2013-02-07 17:43:00,
2013-02-07 11:52:00,37.0,37.0,-100.00,SW,220,2.0,8.0,99,-99.99,,,-99.99,,2013-02-07 17:52:00,
2013-02-07 12:01:00,37.0,37.0,-100.00,SW,220,2.0,8.0,99,-99.99,,,-99.99,,2013-02-07 18:01:00,
2013-02-07 12:11:00,38.0,37.0,-100.00,SW,235,2.0,8.0,99,-99.99,,,-99.99,,2013-02-07 18:11:00,
2013-02-07 12:23:00,37.0,37.0,-100.00,WSW,255,3.0,6.0,99,-99.99,,,-99.99,,2013-02-07 18:23:00,
2013-02-07 12:32:00,37.0,37.0,-100.00,WSW,255,3.0,6.0,99,-99.99,,,-99.99,,2013-02-07 18:32:00,
2013-02-07 12:42:00,37.0,37.0,-100.00,West,265,4.0,4.0,99,-99.99,,,-99.99,,2013-02-07 18:42:00,
2013-02-07 12:52:00,37.0,37.0,-100.00,West,260,3.0,4.0,99,-99.99,,,-99.99,,2013-02-07 18:52:00,
2013-02-07 13:01:00,37.0,37.0,-100.00,West,260,3.0,4.0,99,-99.99,,,-99.99,,2013-02-07 19:01:00,
2013-02-07 13:11:00,37.0,36.0,-100.00,West,280,3.0,4.0,99,-99.99,,,-99.99,,2013-02-07 19:11:00,
2013-02-07 13:22:00,37.0,37.0,-100.00,WSW,250,1.0,4.0,99,-99.99,,,-99.99,,2013-02-07 19:22:00,
2013-02-07 13:32:00,37.0,37.0,-100.00,WSW,250,1.0,4.0,99,-99.99,,,-99.99,,2013-02-07 19:32:00,
2013-02-07 13:42:00,37.0,37.0,-100.00,West,280,1.0,4.0,99,-99.99,,,-99.99,,2013-02-07 19:42:00,
2013-02-07 13:52:00,38.0,38.0,-100.00,SSW,200,0.0,1.0,99,-99.99,,,-99.99,,2013-02-07 19:52:00,
2013-02-07 14:01:00,38.0,38.0,-100.00,SSW,200,0.0,1.0,99,-99.99,,,-99.99,,2013-02-07 20:01:00,
2013-02-07 14:11:00,38.0,38.0,-100.00,WNW,300,0.0,3.0,99,-99.99,,,-99.99,,2013-02-07 20:11:00,
2013-02-07 14:22:00,38.0,38.0,-100.00,West,270,1.0,2.0,99,-99.99,,,-99.99,,2013-02-07 20:22:00,
2013-02-07 14:32:00,38.0,38.0,-100.00,WNW,285,1.0,2.0,99,-99.99,,,-99.99,,2013-02-07 20:32:00,
2013-02-07 14:42:00,38.0,38.0,-100.00,WNW,285,1.0,2.0,99,-99.99,,,-99.99,,2013-02-07 20:42:00,
2013-02-07 14:52:00,38.0,38.0,-100.00,NNW,335,0.0,4.0,99,-99.99,,,-99.99,,2013-02-07 20:52:00,
2013-02-07 15:02:00,38.0,38.0,-100.00,NNW,335,0.0,4.0,99,-99.99,,,-99.99,,2013-02-07 21:02:00,
2013-02-07 15:11:00,39.0,38.0,-100.00,East,85,0.0,3.0,99,-99.99,,,-99.99,,2013-02-07 21:11:00,
2013-02-07 15:21:00,38.0,38.0,-100.00,NW,315,1.0,4.0,99,-99.99,,,-99.99,,2013-02-07 21:21:00,
2013-02-07 15:32:00,38.0,38.0,-100.00,NW,315,1.0,4.0,99,-99.99,,,-99.99,,2013-02-07 21:32:00,
2013-02-07 15:42:00,38.0,38.0,-100.00,WNW,285,2.0,3.0,99,-99.99,,,-99.99,,2013-02-07 21:42:00,
2013-02-07 15:52:00,38.0,38.0,-100.00,West,270,4.0,4.0,99,-99.99,,,-99.99,,2013-02-07 21:52:00,
2013-02-07 16:02:00,38.0,38.0,-100.00,West,270,4.0,4.0,99,-99.99,,,-99.99,,2013-02-07 22:02:00,
2013-02-07 16:11:00,38.0,38.0,-100.00,WNW,290,3.0,4.0,99,-99.99,,,-99.99,,2013-02-07 22:11:00,
2013-02-07 16:21:00,38.0,38.0,-100.00,WNW,285,4.0,5.0,99,-99.99,,,-99.99,,2013-02-07 22:21:00,
2013-02-07 16:32:00,38.0,38.0,-100.00,WNW,285,4.0,5.0,99,-99.99,,,-99.99,,2013-02-07 22:32:00,
2013-02-07 16:42:00,38.0,38.0,-100.00,ENE,65,1.0,3.0,99,-99.99,,,-99.99,,2013-02-07 22:42:00,
2013-02-07 16:52:00,38.0,38.0,-100.00,NNE,20,5.0,6.0,99,-99.99,,,-99.99,,2013-02-07 22:52:00,
2013-02-07 17:01:00,38.0,38.0,-100.00,NNE,20,5.0,6.0,99,-99.99,,,-99.99,,2013-02-07 23:01:00,
2013-02-07 17:11:00,37.0,37.0,-100.00,NNE,25,4.0,5.0,99,-99.99,,,-99.99,,2013-02-07 23:11:00,
2013-02-07 17:21:00,37.0,37.0,-100.00,NE,40,4.0,5.0,99,-99.99,,,-99.99,,2013-02-07 23:21:00,
2013-02-07 17:32:00,37.0,37.0,-100.00,NE,40,4.0,5.0,99,-99.99,,,-99.99,,2013-02-07 23:32:00,
2013-02-07 17:42:00,37.0,37.0,-100.00,NE,55,2.0,4.0,99,-99.99,,,-99.99,,2013-02-07 23:42:00,
2013-02-07 17:52:00,37.0,37.0,-100.00,East,80,2.0,4.0,99,-99.99,,,-99.99,,2013-02-07 23:52:00,
2013-02-07 18:01:00,37.0,37.0,-100.00,East,80,2.0,4.0,99,-99.99,,,-99.99,,2013-02-08 00:01:00,
2013-02-07 18:11:00,37.0,37.0,-100.00,ENE,75,2.0,4.0,99,-99.99,,,-99.99,,2013-02-08 00:11:00,
2013-02-07 18:21:00,37.0,37.0,-100.00,ENE,75,1.0,4.0,99,-99.99,,,-99.99,,2013-02-08 00:21:00,
2013-02-07 18:32:00,37.0,37.0,-100.00,ENE,75,1.0,4.0,99,-99.99,,,-99.99,,2013-02-08 00:32:00,
2013-02-07 18:42:00,37.0,37.0,-100.00,NNE,30,1.0,4.0,99,-99.99,,,-99.99,,2013-02-08 00:42:00,
2013-02-07 18:52:00,37.0,37.0,-100.00,East,90,1.0,4.0,99,-99.99,,,-99.99,,2013-02-08 00:52:00,
2013-02-07 19:01:00,37.0,37.0,-100.00,East,90,1.0,4.0,99,-99.99,,,-99.99,,2013-02-08 01:01:00,
2013-02-07 19:11:00,37.0,37.0,-100.00,NW,320,0.0,2.0,99,-99.99,,,-99.99,,2013-02-08 01:11:00,
2013-02-07 19:21:00,37.0,37.0,-100.00,NE,45,6.0,11.0,99,-99.99,,,-99.99,,2013-02-08 01:21:00,
2013-02-07 19:31:00,37.0,37.0,-100.00,NE,45,6.0,11.0,99,-99.99,,,-99.99,,2013-02-08 01:31:00,
2013-02-07 19:41:00,37.0,37.0,-100.00,NE,45,7.0,11.0,99,-99.99,,,-99.99,,2013-02-08 01:41:00,
2013-02-07 19:52:00,37.0,37.0,-100.00,NE,40,10.0,14.0,99,-99.99,,,-99.99,,2013-02-08 01:52:00,
2013-02-07 20:01:00,37.0,37.0,-100.00,NE,40,10.0,14.0,99,-99.99,,,-99.99,,2013-02-08 02:01:00,
2013-02-07 20:11:00,37.0,37.0,-100.00,NE,45,10.0,18.0,99,-99.99,,,-99.99,,2013-02-08 02:11:00,
2013-02-07 20:21:00,37.0,36.0,-100.00,NE,35,10.0,16.0,99,-99.99,,,-99.99,,2013-02-08 02:21:00,
2013-02-07 20:32:00,37.0,36.0,-100.00,NE,35,10.0,16.0,99,-99.99,,,-99.99,,2013-02-08 02:32:00,
2013-02-07 20:42:00,36.0,36.0,-100.00,NE,40,11.0,21.0,99,-99.99,,,-99.99,,2013-02-08 02:42:00,
2013-02-07 20:52:00,36.0,36.0,-100.00,NNE,30,14.0,21.0,99,-99.99,,,-99.99,,2013-02-08 02:52:00,
2013-02-07 21:02:00,36.0,36.0,-100.00,NNE,30,14.0,21.0,99,-99.99,,,-99.99,,2013-02-08 03:02:00,
2013-02-07 21:12:00,36.0,36.0,-100.00,NNE,20,16.0,22.0,99,-99.99,,,-99.99,,2013-02-08 03:12:00,
2013-02-07 21:22:00,36.0,36.0,-100.00,NE,35,19.0,32.0,99,-99.99,,,-99.99,,2013-02-08 03:22:00,
2013-02-07 21:32:00,36.0,36.0,-100.00,NE,35,19.0,32.0,99,-99.99,,,-99.99,,2013-02-08 03:32:00,
2013-02-07 21:42:00,36.0,36.0,-100.00,NNE,25,15.0,29.0,99,-99.99,,,-99.99,,2013-02-08 03:42:00,
2013-02-07 21:52:00,36.0,36.0,-100.00,NE,40,17.0,29.0,99,-99.99,,,-99.99,,2013-02-08 03:52:00,
2013-02-07 22:02:00,36.0,36.0,-100.00,NE,40,17.0,29.0,99,-99.99,,,-99.99,,2013-02-08 04:02:00,
2013-02-07 22:11:00,36.0,35.0,-100.00,NNE,30,17.0,24.0,99,-99.99,,,-99.99,,2013-02-08 04:11:00,
2013-02-07 22:21:00,36.0,35.0,-100.00,NE,40,14.0,23.0,99,-99.99,,,-99.99,,2013-02-08 04:21:00,
2013-02-07 22:32:00,36.0,35.0,-100.00,NE,40,14.0,23.0,99,-99.99,,,-99.99,,2013-02-08 04:32:00,
2013-02-07 22:42:00,36.0,35.0,-100.00,NE,50,12.0,19.0,99,-99.99,,,-99.99,,2013-02-08 04:42:00,
2013-02-07 22:52:00,35.0,35.0,-100.00,NE,45,13.0,21.0,99,-99.99,,,-99.99,,2013-02-08 04:52:00,
2013-02-07 23:02:00,35.0,35.0,-100.00,NE,45,13.0,21.0,99,-99.99,,,-99.99,,2013-02-08 05:02:00,
2013-02-07 23:12:00,35.0,35.0,-100.00,ENE,60,15.0,20.0,99,-99.99,,,-99.99,,2013-02-08 05:12:00,
2013-02-07 23:22:00,35.0,35.0,-100.00,NNE,30,15.0,21.0,99,-99.99,,,-99.99,,2013-02-08 05:22:00,
2013-02-07 23:32:00,35.0,35.0,-100.00,NE,40,15.0,21.0,99,-99.99,,,-99.99,,2013-02-08 05:32:00,
2013-02-07 23:42:00,35.0,35.0,-100.00,NE,40,15.0,21.0,99,-99.99,,,-99.99,,2013-02-08 05:42:00,
2013-02-07 23:52:00,36.0,35.0,-100.00,NE,40,16.0,25.0,99,-99.99,,,-99.99,,2013-02-08 05:52:00,